星链-31821 (STARLINK-31821 )

导读 | 豆包AI

STARLINK-31821是美国太空探索技术公司星链星座的组成卫星,于2024年5月13日发射入轨。星链项目旨在构建全球卫星互联网星座,为全球范围提供高速低时延的网络接入服务,该卫星的发射进一步扩充了星链星座的在轨规模,推进全球覆盖布局,助力拓展卫星互联网的服务能力。

基本信息
目录编号:
59737
目录名称:
STARLINK-31821
国际标识:
2024-090H
轨道中心:
EARTH
卫星名称:
星链-31821
卫星全名:
星链-31821 (STARLINK-31821 )
卫星状态:
在轨 (已飞行671 天)
发射日期:
2024-05-13 UTC
国别 :
美国 (US)
星等 :
--
轨道信息
数据来源 国际轨道数据
星历时间: 2026-03-14T21:22:39+0800
1天前
查看轨道信息
半长轴: 6861.167km
偏心率: 0.0001511
轨道倾角: 43.004°
近地点辐角 294.050°
升交点赤经 156.089°
平近点角 66.020°
近地点: 481.993km
远地点: 484.067km
周期: 94.266分钟
每日圈数: 15.275864
详细信息
固有亮度:
5
最大亮度:
1.5
卫星平台:
Starlink v2.0 mini
覆盖范围:
全球
运营商:
太空探索技术公司
运营商所在国:
美国
制造商(研发单位):
太空探索技术公司
制造商所在国:
美国
使用方式:
暂无
卫星简介
星链(Starlink)计划是由太空探索技术公司(SpaceX)提出的一个巨型低轨卫星互联网星座项目,计划在2019年至2024年间在太空搭建由约1.2万颗卫星组成的“星链”网络,其中1584颗将部署在地球上空550千米处的近地轨道,并从2020年开始工作。该卫星仍在工作。
2D轨道图
3D轨道图
轨道高度分析图
轨道倾角分析图
轨道综合分析图
查看轨道综合分析图